Location: Eschentzwiller
(47.7125°N, 7.3981°E)
Time: 03:21:22
(UTC+00:00)

FALCON 9 DEB - Pass Details

Date: 27 October 2020
Orbit: 378 x 394 km, 53.0° (Epoch: 01 December)

Event Time Altitude Azimuth Distance (km) Brightness Sun altitude
Rises 16:41:44 0° 216° (SW) 2,296 7.7 -4.3°
Reaches altitude 10° 16:43:56 10° 206° (SSW) 1,439 6.4 -4.7°
Maximum altitude 16:46:50 31° 141° (SE) 717 4.0 -5.1°
Drops below altitude 10° 16:49:44 10° 77° (ENE) 1,437 5.1 -5.6°
Enters shadow 16:50:15 - 73° (ENE) 1,632 5.3 -5.7°
